Vorticity
nan nan nan nan nan nan nan nan nan nan nan nan nan nan nan nan nan nan nan nan nan nan
nan 9 9 10 9 7 7 6 7 10 14 12 10 9 8 7 9 11 9 8 6 nan
nan 12 11 12 12 10 9 7 10 11 11 13 10 10 9 7 11 6 7 10 8 nan
nan 13 13 13 13 14 14 17 12 10 13 14 9 10 9 10 11 8 8 9 10 nan
nan 13 12 13 12 14 23 26 17 12 15 14 10 10 9 9 10 12 10 9 10 nan
nan 13 13 11 13 16 19 20 27 26 17 12 12 11 11 12 10 11 12 10 7 nan
nan 14 16 12 13 13 15 14 18 33 33 23 15 11 10 9 11 11 13 13 12 nan
nan 13 14 14 13 9 13 18 16 14 18 19 18 23 23 15 12 11 8 13 14 nan
nan 12 12 13 14 14 9 10 14 11 12 14 6 14 42 31 13 14 9 7 8 nan
nan 10 11 12 12 13 12 10 8 11 12 11 5 12 26 30 23 13 13 12 8 nan
nan 11 10 11 10 10 10 11 11 8 11 12 7 10 10 22 15 12 11 12 13 nan
nan 10 10 10 10 10 10 8 10 9 9 12 7 13 20 13 8 12 7 10 14 nan
nan 10 10 10 11 10 9 9 8 7 3 7 10 6 21 21 14 7 8 5 7 nan
nan nan nan nan nan nan nan nan nan nan nan nan nan nan nan nan nan nan nan nan nan nan
CAPE
8 8 8 8 8 6 6 0 0 1057 1197 907 1495 1559 1665 1677 1671 1480 1311 1098 905 678
9 7 8 7 9 8 6 4 2 31 1361 1513 1657 1506 1599 1729 1626 1477 1187 1270 1016 862
13 11 10 13 11 9 5 5 6 0 1022 1833 1731 1666 1692 1656 1463 1289 1244 729 488 509
15 12 14 17 15 14 8 4 5 3 823 1594 1569 1627 1677 1581 1445 1381 1310 1102 847 278
12 8 12 10 9 14 11 0 2 83 948 1249 1330 1306 1526 1549 1438 1387 1084 1014 962 612
5 6 9 7 11 8 9 1 30 784 918 1086 1195 1171 1427 1494 1432 1414 1207 1025 671 559
6 6 6 7 7 4 8 4 2 8 325 761 1054 1122 1189 1236 1232 1166 935 654 422 217
4 5 5 4 3 3 2 5 5 2 3 8 3 37 414 1009 1083 932 73 1 0 0
4 4 4 5 2 1 0 1 2 2 6 6 3 0 0 777 604 0 0 1 1 2
1 2 1 3 1 1 1 0 1 2 3 4 3 4 6 1 0 0 7 5 2 2
1 1 1 0 0 0 0 0 0 0 0 2 4 14 17 8 3 10 8 2 0 0
2 2 2 2 1 0 0 0 0 0 0 0 1 4 1 0 1 4 1 1 0 0
2 1 1 3 3 2 1 1 0 0 0 5 0 12 4 0 0 0 0 0 0 5
4 2 2 3 2 2 2 2 0 0 0 0 2 5 10 7 0 0 0 0 0 3